Time,TemperatureF,DewpointF,PressureIn,WindDirection,WindDirectionDegrees,WindSpeedMPH,WindSpeedGustMPH,Humidity,HourlyPrecipIn,Conditions,Clouds,dailyrainin,SoftwareType,DateUTC
2013-03-25 00:02:00,29.4,17.6,30.28,SSW,194,1.0,2.0,61,0.00,,---,0.00,VWS V14.01,2013-03-25 05:02:00,
2013-03-25 00:07:00,29.3,17.5,30.28,SSW,207,1.0,2.0,61,0.00,,---,0.00,VWS V14.01,2013-03-25 05:07:00,
2013-03-25 00:13:00,29.4,17.6,30.29,SW,224,2.0,2.0,61,0.00,,---,0.00,VWS V14.01,2013-03-25 05:13:00,
2013-03-25 00:18:00,29.7,17.5,30.29,SW,221,2.0,2.0,60,0.00,,---,0.00,VWS V14.01,2013-03-25 05:18:00,
2013-03-25 00:23:00,29.6,17.4,30.29,SW,221,2.0,2.0,60,0.00,,---,0.00,VWS V14.01,2013-03-25 05:23:00,
2013-03-25 00:28:00,29.6,17.4,30.29,WSW,241,1.0,2.0,60,0.00,,---,0.00,VWS V14.01,2013-03-25 05:28:00,
2013-03-25 00:33:00,29.7,17.5,30.30,WSW,257,1.0,2.0,60,0.00,,---,0.00,VWS V14.01,2013-03-25 05:33:00,
2013-03-25 00:38:00,30.0,17.8,30.30,West,261,1.0,2.0,60,0.00,,---,0.00,VWS V14.01,2013-03-25 05:38:00,
2013-03-25 00:43:00,29.9,17.7,30.30,WSW,256,1.0,2.0,60,0.00,,---,0.00,VWS V14.01,2013-03-25 05:43:00,
2013-03-25 00:48:00,29.3,17.5,30.30,WSW,245,1.0,2.0,61,0.00,,---,0.00,VWS V14.01,2013-03-25 05:48:00,
2013-03-25 00:53:00,28.4,17.4,30.30,WSW,245,0.0,2.0,63,0.00,,---,0.00,VWS V14.01,2013-03-25 05:53:00,
2013-03-25 00:59:00,28.0,17.4,30.30,SW,224,1.0,2.0,64,0.00,,---,0.00,VWS V14.01,2013-03-25 05:59:00,
2013-03-25 01:04:00,27.9,17.3,30.31,SW,231,0.0,1.0,64,0.00,,---,0.00,VWS V14.01,2013-03-25 06:04:00,
2013-03-25 01:09:00,27.5,16.9,30.31,SW,219,0.0,1.0,64,0.00,,---,0.00,VWS V14.01,2013-03-25 06:09:00,
2013-03-25 01:14:00,27.6,17.4,30.31,SSW,201,0.0,1.0,65,0.00,,---,0.00,VWS V14.01,2013-03-25 06:14:00,
2013-03-25 01:19:00,27.1,16.6,30.32,South,188,2.0,3.0,64,0.00,,---,0.00,VWS V14.01,2013-03-25 06:19:00,
2013-03-25 01:24:00,25.9,16.1,30.32,South,182,2.0,3.0,66,0.00,,---,0.00,VWS V14.01,2013-03-25 06:24:00,
2013-03-25 01:29:00,25.3,16.6,30.32,South,188,2.0,3.0,69,0.00,,---,0.00,VWS V14.01,2013-03-25 06:29:00,
2013-03-25 01:34:00,25.3,16.6,30.32,SSW,207,2.0,2.0,69,0.00,,---,0.00,VWS V14.01,2013-03-25 06:34:00,
2013-03-25 01:39:00,25.7,16.6,30.31,SSW,208,0.0,2.0,68,0.00,,---,0.00,VWS V14.01,2013-03-25 06:39:00,
2013-03-25 01:45:00,26.2,17.1,30.31,SSW,207,0.0,2.0,68,0.00,,---,0.00,VWS V14.01,2013-03-25 06:45:00,
2013-03-25 01:50:00,26.5,16.7,30.31,SSW,208,0.0,2.0,66,0.00,,---,0.00,VWS V14.01,2013-03-25 06:50:00,
2013-03-25 01:55:00,25.9,16.5,30.31,SSW,208,0.0,2.0,67,0.00,,---,0.00,VWS V14.01,2013-03-25 06:55:00,
2013-03-25 02:00:00,25.5,16.4,30.32,SSW,208,0.0,2.0,68,0.00,,---,0.00,VWS V14.01,2013-03-25 07:00:00,
2013-03-25 02:05:00,25.5,16.8,30.31,SSW,208,0.0,0.0,69,0.00,,---,0.00,VWS V14.01,2013-03-25 07:05:00,
2013-03-25 02:10:00,25.3,16.6,30.32,SSW,207,0.0,0.0,69,0.00,,---,0.00,VWS V14.01,2013-03-25 07:10:00,
2013-03-25 02:15:00,24.9,16.2,30.32,SSE,165,0.0,0.0,69,0.00,,---,0.00,VWS V14.01,2013-03-25 07:15:00,
2013-03-25 02:20:00,24.3,15.9,30.32,SE,145,0.0,0.0,70,0.00,,---,0.00,VWS V14.01,2013-03-25 07:20:00,
2013-03-25 02:26:00,24.2,16.2,30.32,SSE,151,0.0,0.0,71,0.00,,---,0.00,VWS V14.01,2013-03-25 07:26:00,
2013-03-25 02:31:00,24.2,16.2,30.32,SSE,151,0.0,0.0,71,0.00,,---,0.00,VWS V14.01,2013-03-25 07:31:00,
2013-03-25 02:36:00,24.1,16.4,30.32,SSW,210,0.0,0.0,72,0.00,,---,0.00,VWS V14.01,2013-03-25 07:36:00,
2013-03-25 02:41:00,24.0,16.6,30.32,SSW,203,0.0,0.0,73,0.00,,---,0.00,VWS V14.01,2013-03-25 07:41:00,
2013-03-25 02:46:00,23.6,16.2,30.32,SSW,194,0.0,0.0,73,0.00,,---,0.00,VWS V14.01,2013-03-25 07:46:00,
2013-03-25 02:51:00,23.4,16.4,30.32,SSW,195,0.0,0.0,74,0.00,,---,0.00,VWS V14.01,2013-03-25 07:51:00,
2013-03-25 02:56:00,23.4,16.7,30.32,SSW,210,0.0,0.0,75,0.00,,---,0.00,VWS V14.01,2013-03-25 07:56:00,
2013-03-25 03:01:00,23.8,16.7,30.32,SW,218,0.0,0.0,74,0.00,,---,0.00,VWS V14.01,2013-03-25 08:01:00,
2013-03-25 03:07:00,24.0,16.9,30.32,WSW,252,0.0,0.0,74,0.00,,---,0.00,VWS V14.01,2013-03-25 08:07:00,
2013-03-25 03:12:00,24.1,17.0,30.32,WSW,256,0.0,0.0,74,0.00,,---,0.00,VWS V14.01,2013-03-25 08:12:00,
2013-03-25 03:17:00,24.1,17.0,30.32,WSW,257,0.0,0.0,74,0.00,,---,0.00,VWS V14.01,2013-03-25 08:17:00,
2013-03-25 03:22:00,24.2,17.1,30.32,WSW,256,0.0,0.0,74,0.00,,---,0.00,VWS V14.01,2013-03-25 08:22:00,
2013-03-25 03:27:00,24.2,17.1,30.32,WSW,256,0.0,0.0,74,0.00,,---,0.00,VWS V14.01,2013-03-25 08:27:00,
2013-03-25 03:32:00,24.2,17.1,30.32,WSW,257,0.0,0.0,74,0.00,,---,0.00,VWS V14.01,2013-03-25 08:32:00,
2013-03-25 03:37:00,24.1,17.0,30.32,WSW,252,0.0,0.0,74,0.00,,---,0.00,VWS V14.01,2013-03-25 08:37:00,
2013-03-25 03:42:00,23.8,16.7,30.32,SW,217,0.0,0.0,74,0.00,,---,0.00,VWS V14.01,2013-03-25 08:42:00,
2013-03-25 03:47:00,23.7,16.6,30.32,SW,219,0.0,0.0,74,0.00,,---,0.00,VWS V14.01,2013-03-25 08:47:00,
2013-03-25 03:52:00,23.9,16.8,30.32,WSW,255,0.0,0.0,74,0.00,,---,0.00,VWS V14.01,2013-03-25 08:52:00,
2013-03-25 03:57:00,23.8,16.4,30.32,SSW,203,0.0,0.0,73,0.00,,---,0.00,VWS V14.01,2013-03-25 08:57:00,
2013-03-25 04:02:00,23.1,16.1,30.32,SSW,195,0.0,0.0,74,0.00,,---,0.00,VWS V14.01,2013-03-25 09:02:00,
2013-03-25 04:07:00,22.5,15.8,30.32,SSW,201,0.0,0.0,75,0.00,,---,0.00,VWS V14.01,2013-03-25 09:07:00,
2013-03-25 04:13:00,22.8,16.4,30.32,SSW,207,0.0,0.0,76,0.00,,---,0.00,VWS V14.01,2013-03-25 09:13:00,
2013-03-25 04:18:00,22.8,16.4,30.32,SSW,200,0.0,0.0,76,0.00,,---,0.00,VWS V14.01,2013-03-25 09:18:00,
2013-03-25 04:23:00,22.5,16.1,30.32,South,187,0.0,0.0,76,0.00,,---,0.00,VWS V14.01,2013-03-25 09:23:00,
2013-03-25 04:28:00,22.2,15.8,30.32,SSE,167,2.0,3.0,76,0.00,,---,0.00,VWS V14.01,2013-03-25 09:28:00,
2013-03-25 04:33:00,21.7,15.6,30.32,South,183,2.0,2.0,77,0.00,,---,0.00,VWS V14.01,2013-03-25 09:33:00,
2013-03-25 04:38:00,21.8,16.0,30.33,SSW,205,2.0,3.0,78,0.00,,---,0.00,VWS V14.01,2013-03-25 09:38:00,
2013-03-25 04:43:00,22.2,16.4,30.33,SSW,208,2.0,3.0,78,0.00,,---,0.00,VWS V14.01,2013-03-25 09:43:00,
2013-03-25 04:48:00,22.3,16.2,30.33,SSW,198,2.0,3.0,77,0.00,,---,0.00,VWS V14.01,2013-03-25 09:48:00,
2013-03-25 04:53:00,22.1,16.0,30.33,SSW,200,3.0,3.0,77,0.00,,---,0.00,VWS V14.01,2013-03-25 09:53:00,
2013-03-25 04:58:00,22.0,16.2,30.33,SSW,207,1.0,3.0,78,0.00,,---,0.00,VWS V14.01,2013-03-25 09:58:00,
2013-03-25 05:04:00,21.8,16.0,30.34,SW,224,0.0,2.0,78,0.00,,---,0.00,VWS V14.01,2013-03-25 10:04:00,
2013-03-25 05:09:00,21.6,15.8,30.34,SW,224,0.0,2.0,78,0.00,,---,0.00,VWS V14.01,2013-03-25 10:09:00,
2013-03-25 05:14:00,21.3,15.8,30.34,SW,224,0.0,2.0,79,0.00,,---,0.00,VWS V14.01,2013-03-25 10:14:00,
2013-03-25 05:19:00,21.5,16.3,30.34,SW,224,0.0,2.0,80,0.00,,---,0.00,VWS V14.01,2013-03-25 10:19:00,
2013-03-25 05:24:00,21.6,16.4,30.35,NW,320,0.0,2.0,80,0.00,,---,0.00,VWS V14.01,2013-03-25 10:24:00,
2013-03-25 05:29:00,22.0,16.8,30.35,NW,321,0.0,2.0,80,0.00,,---,0.00,VWS V14.01,2013-03-25 10:29:00,
2013-03-25 05:34:00,22.4,16.9,30.35,NW,323,0.0,0.0,79,0.00,,---,0.00,VWS V14.01,2013-03-25 10:34:00,
2013-03-25 05:39:00,22.7,16.9,30.36,NW,325,0.0,0.0,78,0.00,,---,0.00,VWS V14.01,2013-03-25 10:39:00,
2013-03-25 05:44:00,22.7,16.9,30.36,NNW,337,0.0,0.0,78,0.00,,---,0.00,VWS V14.01,2013-03-25 10:44:00,
2013-03-25 05:49:00,22.7,16.6,30.36,NNW,340,0.0,0.0,77,0.00,,---,0.00,VWS V14.01,2013-03-25 10:49:00,
2013-03-25 05:54:00,22.6,16.5,30.36,NNW,333,0.0,0.0,77,0.00,,---,0.00,VWS V14.01,2013-03-25 10:54:00,
2013-03-25 05:59:00,22.5,16.1,30.36,NNW,329,0.0,0.0,76,0.00,,---,0.00,VWS V14.01,2013-03-25 10:59:00,
2013-03-25 06:04:00,22.4,16.3,30.36,NW,320,0.0,0.0,77,0.00,,---,0.00,VWS V14.01,2013-03-25 11:04:00,
2013-03-25 06:10:00,22.4,16.6,30.37,NW,314,0.0,0.0,78,0.00,,---,0.00,VWS V14.01,2013-03-25 11:10:00,
2013-03-25 06:15:00,22.5,16.7,30.37,WNW,301,0.0,0.0,78,0.00,,---,0.00,VWS V14.01,2013-03-25 11:15:00,
2013-03-25 06:20:00,22.6,16.8,30.37,WNW,298,0.0,0.0,78,0.00,,---,0.00,VWS V14.01,2013-03-25 11:20:00,
2013-03-25 06:25:00,22.6,17.1,30.37,WNW,300,0.0,0.0,79,0.00,,---,0.00,VWS V14.01,2013-03-25 11:25:00,
2013-03-25 06:30:00,22.5,17.0,30.37,WNW,297,1.0,1.0,79,0.00,,---,0.00,VWS V14.01,2013-03-25 11:30:00,
2013-03-25 06:35:00,22.7,17.5,30.37,WNW,300,3.0,4.0,80,0.00,,---,0.00,VWS V14.01,2013-03-25 11:35:00,
2013-03-25 06:40:00,22.9,17.7,30.37,WNW,298,3.0,4.0,80,0.00,,---,0.00,VWS V14.01,2013-03-25 11:40:00,
2013-03-25 06:45:00,23.1,17.9,30.37,WNW,287,2.0,4.0,80,0.00,,---,0.00,VWS V14.01,2013-03-25 11:45:00,
2013-03-25 06:50:00,23.4,18.1,30.38,WNW,289,1.0,4.0,80,0.00,,---,0.00,VWS V14.01,2013-03-25 11:50:00,
2013-03-25 06:55:00,23.6,18.4,30.38,WNW,300,1.0,4.0,80,0.00,,---,0.00,VWS V14.01,2013-03-25 11:55:00,
2013-03-25 07:00:00,23.6,18.1,30.38,WNW,303,2.0,4.0,79,0.00,,---,0.00,VWS V14.01,2013-03-25 12:00:00,
2013-03-25 07:05:00,23.5,18.0,30.38,NW,309,1.0,3.0,79,0.00,,---,0.00,VWS V14.01,2013-03-25 12:05:00,
2013-03-25 07:10:00,23.5,18.2,30.38,NW,307,3.0,3.0,80,0.00,,---,0.00,VWS V14.01,2013-03-25 12:10:00,
2013-03-25 07:15:00,23.4,18.1,30.38,WNW,294,1.0,3.0,80,0.00,,---,0.00,VWS V14.01,2013-03-25 12:15:00,
2013-03-25 07:20:00,23.3,18.1,30.38,NW,305,0.0,3.0,80,0.00,,---,0.00,VWS V14.01,2013-03-25 12:20:00,
2013-03-25 07:25:00,23.3,18.1,30.38,WNW,300,1.0,4.0,80,0.00,,---,0.00,VWS V14.01,2013-03-25 12:25:00,
2013-03-25 07:30:00,23.2,18.0,30.38,WNW,301,2.0,4.0,80,0.00,,---,0.00,VWS V14.01,2013-03-25 12:30:00,
2013-03-25 07:36:00,23.3,18.1,30.39,WNW,283,2.0,3.0,80,0.00,,---,0.00,VWS V14.01,2013-03-25 12:36:00,
2013-03-25 07:41:00,23.2,18.2,30.39,West,278,1.0,3.0,81,0.00,,---,0.00,VWS V14.01,2013-03-25 12:41:00,
2013-03-25 07:46:00,23.2,18.2,30.39,West,259,2.0,3.0,81,0.00,,---,0.00,VWS V14.01,2013-03-25 12:46:00,
2013-03-25 07:51:00,23.2,18.2,30.40,West,260,2.0,3.0,81,0.00,,---,0.00,VWS V14.01,2013-03-25 12:51:00,
2013-03-25 07:56:00,23.4,18.4,30.40,WSW,255,1.0,3.0,81,0.00,,---,0.00,VWS V14.01,2013-03-25 12:56:00,
2013-03-25 08:02:00,23.7,18.5,30.41,WSW,255,1.0,3.0,80,0.00,,---,0.00,VWS V14.01,2013-03-25 13:02:00,
2013-03-25 08:07:00,23.9,18.6,30.41,West,277,0.0,3.0,80,0.00,,---,0.00,VWS V14.01,2013-03-25 13:07:00,
2013-03-25 08:12:00,24.1,18.8,30.41,West,281,2.0,3.0,80,0.00,,---,0.00,VWS V14.01,2013-03-25 13:12:00,
2013-03-25 08:17:00,24.5,18.9,30.42,West,269,1.0,3.0,79,0.00,,---,0.00,VWS V14.01,2013-03-25 13:17:00,
2013-03-25 08:22:00,25.3,19.7,30.42,West,269,2.0,4.0,79,0.00,,---,0.00,VWS V14.01,2013-03-25 13:22:00,
2013-03-25 08:28:00,26.2,20.3,30.42,WNW,293,3.0,4.0,78,0.00,,---,0.00,VWS V14.01,2013-03-25 13:28:00,
2013-03-25 08:33:00,26.9,20.7,30.42,WNW,290,4.0,4.0,77,0.00,,---,0.00,VWS V14.01,2013-03-25 13:33:00,
2013-03-25 08:38:00,27.5,21.2,30.42,WNW,288,1.0,4.0,77,0.00,,---,0.00,VWS V14.01,2013-03-25 13:38:00,
2013-03-25 08:43:00,28.2,21.6,30.43,WNW,290,4.0,5.0,76,0.00,,---,0.00,VWS V14.01,2013-03-25 13:43:00,
2013-03-25 08:48:00,28.9,22.0,30.43,WNW,300,2.0,6.0,75,0.00,,---,0.00,VWS V14.01,2013-03-25 13:48:00,
2013-03-25 08:53:00,29.6,22.7,30.43,WNW,300,4.0,6.0,75,0.00,,---,0.00,VWS V14.01,2013-03-25 13:53:00,
2013-03-25 08:58:00,30.6,23.0,30.43,North,351,5.0,6.0,73,0.00,,---,0.00,VWS V14.01,2013-03-25 13:58:00,
2013-03-25 09:03:00,32.0,23.0,30.44,NNW,330,4.0,7.0,69,0.00,,---,0.00,VWS V14.01,2013-03-25 14:03:00,
2013-03-25 09:08:00,33.4,21.4,30.44,NW,326,17.0,19.0,61,0.00,,---,0.00,VWS V14.01,2013-03-25 14:08:00,
2013-03-25 09:14:00,34.4,21.2,30.44,WNW,294,11.0,19.0,58,0.00,,---,0.00,VWS V14.01,2013-03-25 14:14:00,
2013-03-25 09:19:00,35.0,20.5,30.44,NW,323,10.0,19.0,55,0.00,,---,0.00,VWS V14.01,2013-03-25 14:19:00,
2013-03-25 09:24:00,35.4,19.1,30.44,NNW,347,12.0,19.0,51,0.00,,---,0.00,VWS V14.01,2013-03-25 14:24:00,
2013-03-25 09:29:00,35.8,19.0,30.44,NW,313,12.0,19.0,50,0.00,,---,0.00,VWS V14.01,2013-03-25 14:29:00,
2013-03-25 09:34:00,36.1,18.8,30.45,NNW,330,8.0,17.0,49,0.00,,---,0.00,VWS V14.01,2013-03-25 14:34:00,
2013-03-25 09:39:00,36.4,17.1,30.45,NW,323,12.0,20.0,45,0.00,,---,0.00,VWS V14.01,2013-03-25 14:39:00,
2013-03-25 09:45:00,36.7,16.3,30.45,North,351,16.0,23.0,43,0.00,,---,0.00,VWS V14.01,2013-03-25 14:45:00,
2013-03-25 09:50:00,36.9,16.5,30.45,NNW,333,8.0,23.0,43,0.00,,---,0.00,VWS V14.01,2013-03-25 14:50:00,
2013-03-25 09:55:00,37.3,16.9,30.45,North,9,11.0,23.0,43,0.00,,---,0.00,VWS V14.01,2013-03-25 14:55:00,
2013-03-25 10:00:00,37.6,16.6,30.45,WNW,300,13.0,24.0,42,0.00,,---,0.00,VWS V14.01,2013-03-25 15:00:00,
2013-03-25 10:05:00,37.8,16.8,30.45,North,3,15.0,20.0,42,0.00,,---,0.00,VWS V14.01,2013-03-25 15:05:00,
2013-03-25 10:10:00,38.1,17.0,30.45,NW,322,10.0,20.0,42,0.00,,---,0.00,VWS V14.01,2013-03-25 15:10:00,
2013-03-25 10:15:00,38.1,17.0,30.46,NW,317,8.0,20.0,42,0.00,,---,0.00,VWS V14.01,2013-03-25 15:15:00,
2013-03-25 10:21:00,38.3,17.2,30.46,NNW,333,10.0,20.0,42,0.00,,---,0.00,VWS V14.01,2013-03-25 15:21:00,
2013-03-25 10:26:00,38.5,16.9,30.46,North,1,13.0,20.0,41,0.00,,---,0.00,VWS V14.01,2013-03-25 15:26:00,
2013-03-25 10:31:00,38.9,17.2,30.46,NW,316,5.0,7.0,41,0.00,,---,0.00,VWS V14.01,2013-03-25 15:31:00,
2013-03-25 10:37:00,39.2,16.9,30.47,NW,321,7.0,16.0,40,0.00,,---,0.00,VWS V14.01,2013-03-25 15:37:00,
2013-03-25 10:42:00,39.7,16.8,30.47,NNW,328,12.0,16.0,39,0.00,,---,0.00,VWS V14.01,2013-03-25 15:42:00,
2013-03-25 10:47:00,39.8,15.7,30.47,WNW,285,8.0,18.0,37,0.00,,---,0.00,VWS V14.01,2013-03-25 15:47:00,
2013-03-25 10:52:00,39.7,15.6,30.47,NNW,346,14.0,18.0,37,0.00,,---,0.00,VWS V14.01,2013-03-25 15:52:00,
2013-03-25 10:57:00,39.7,16.2,30.47,West,262,6.0,18.0,38,0.00,,---,0.00,VWS V14.01,2013-03-25 15:57:00,
2013-03-25 11:03:00,39.9,15.1,30.47,West,275,10.0,23.0,36,0.00,,---,0.00,VWS V14.01,2013-03-25 16:03:00,
2013-03-25 11:08:00,40.6,15.8,30.47,NNW,330,15.0,23.0,36,0.00,,---,0.00,VWS V14.01,2013-03-25 16:08:00,
2013-03-25 11:13:00,40.7,14.5,30.47,NW,314,12.0,23.0,34,0.00,,---,0.00,VWS V14.01,2013-03-25 16:13:00,
2013-03-25 11:18:00,40.8,14.6,30.46,NW,314,15.0,23.0,34,0.00,,---,0.00,VWS V14.01,2013-03-25 16:18:00,
2013-03-25 11:23:00,41.1,14.9,30.47,NNW,336,12.0,23.0,34,0.00,,---,0.00,VWS V14.01,2013-03-25 16:23:00,
2013-03-25 11:28:00,41.5,15.2,30.47,NW,311,17.0,23.0,34,0.00,,---,0.00,VWS V14.01,2013-03-25 16:28:00,
2013-03-25 11:33:00,41.3,15.1,30.47,NW,316,8.0,15.0,34,0.00,,---,0.00,VWS V14.01,2013-03-25 16:33:00,
2013-03-25 11:38:00,41.7,14.7,30.46,NW,323,13.0,18.0,33,0.00,,---,0.00,VWS V14.01,2013-03-25 16:38:00,
2013-03-25 11:43:00,42.0,15.0,30.46,NNW,340,7.0,18.0,33,0.00,,---,0.00,VWS V14.01,2013-03-25 16:43:00,
2013-03-25 11:48:00,41.9,14.2,30.46,NW,317,15.0,18.0,32,0.00,,---,0.00,VWS V14.01,2013-03-25 16:48:00,
2013-03-25 11:53:00,42.5,15.4,30.46,WNW,295,8.0,20.0,33,0.00,,---,0.00,VWS V14.01,2013-03-25 16:53:00,
2013-03-25 11:59:00,42.6,14.8,30.46,NW,306,12.0,20.0,32,0.00,,---,0.00,VWS V14.01,2013-03-25 16:59:00,
2013-03-25 12:04:00,42.7,14.2,30.46,NW,316,9.0,17.0,31,0.00,,---,0.00,VWS V14.01,2013-03-25 17:04:00,
2013-03-25 12:09:00,43.1,13.8,30.46,North,349,9.0,20.0,30,0.00,,---,0.00,VWS V14.01,2013-03-25 17:09:00,
2013-03-25 12:14:00,43.2,13.9,30.46,WNW,293,7.0,20.0,30,0.00,,---,0.00,VWS V14.01,2013-03-25 17:14:00,
2013-03-25 12:19:00,43.5,15.6,30.46,NNW,342,6.0,20.0,32,0.00,,---,0.00,VWS V14.01,2013-03-25 17:19:00,
2013-03-25 12:24:00,44.3,15.6,30.46,North,352,14.0,20.0,31,0.00,,---,0.00,VWS V14.01,2013-03-25 17:24:00,
2013-03-25 12:29:00,44.1,15.4,30.45,NNW,328,15.0,20.0,31,0.00,,---,0.00,VWS V14.01,2013-03-25 17:29:00,
2013-03-25 12:34:00,44.4,14.9,30.45,NW,321,15.0,15.0,30,0.00,,---,0.00,VWS V14.01,2013-03-25 17:34:00,
2013-03-25 12:39:00,44.2,14.8,30.45,North,359,18.0,19.0,30,0.00,,---,0.00,VWS V14.01,2013-03-25 17:39:00,
2013-03-25 12:45:00,44.6,15.1,30.44,NW,310,17.0,23.0,30,0.00,,---,0.00,VWS V14.01,2013-03-25 17:45:00,
2013-03-25 12:50:00,44.8,15.3,30.45,NNW,335,16.0,23.0,30,0.00,,---,0.00,VWS V14.01,2013-03-25 17:50:00,
2013-03-25 12:55:00,44.9,15.4,30.44,NW,316,8.0,23.0,30,0.00,,---,0.00,VWS V14.01,2013-03-25 17:55:00,
2013-03-25 13:00:00,45.2,15.6,30.44,West,264,10.0,23.0,30,0.00,,---,0.00,VWS V14.01,2013-03-25 18:00:00,
2013-03-25 13:05:00,45.6,16.0,30.44,WNW,294,10.0,16.0,30,0.00,,---,0.00,VWS V14.01,2013-03-25 18:05:00,
2013-03-25 13:10:00,45.7,16.8,30.43,NNW,335,14.0,16.0,31,0.00,,---,0.00,VWS V14.01,2013-03-25 18:10:00,
2013-03-25 13:15:00,45.6,16.0,30.43,West,281,15.0,22.0,30,0.00,,---,0.00,VWS V14.01,2013-03-25 18:15:00,
2013-03-25 13:20:00,45.3,14.1,30.43,NW,306,13.0,22.0,28,0.00,,---,0.00,VWS V14.01,2013-03-25 18:20:00,
2013-03-25 13:25:00,46.2,15.7,30.43,NW,326,9.0,22.0,29,0.00,,---,0.00,VWS V14.01,2013-03-25 18:25:00,
2013-03-25 13:30:00,46.0,16.3,30.43,NW,314,11.0,22.0,30,0.00,,---,0.00,VWS V14.01,2013-03-25 18:30:00,
2013-03-25 13:36:00,46.0,15.5,30.42,NNW,335,12.0,23.0,29,0.00,,---,0.00,VWS V14.01,2013-03-25 18:36:00,
2013-03-25 13:41:00,46.3,15.0,30.41,NNW,342,16.0,23.0,28,0.00,,---,0.00,VWS V14.01,2013-03-25 18:41:00,
2013-03-25 13:46:00,46.5,14.3,30.41,North,352,15.0,23.0,27,0.00,,---,0.00,VWS V14.01,2013-03-25 18:46:00,
2013-03-25 13:51:00,46.7,14.5,30.41,WNW,285,16.0,23.0,27,0.00,,---,0.00,VWS V14.01,2013-03-25 18:51:00,
2013-03-25 13:57:00,46.5,14.3,30.41,NW,311,12.0,23.0,27,0.00,,---,0.00,VWS V14.01,2013-03-25 18:57:00,
2013-03-25 14:02:00,47.1,15.7,30.41,North,352,18.0,18.0,28,0.00,,---,0.00,VWS V14.01,2013-03-25 19:02:00,
2013-03-25 14:07:00,46.9,14.7,30.41,North,11,14.0,18.0,27,0.00,,---,0.00,VWS V14.01,2013-03-25 19:07:00,
2013-03-25 14:12:00,47.7,16.2,30.40,NNW,338,10.0,21.0,28,0.00,,---,0.00,VWS V14.01,2013-03-25 19:12:00,
2013-03-25 14:17:00,47.7,14.5,30.40,NW,314,12.0,21.0,26,0.00,,---,0.00,VWS V14.01,2013-03-25 19:17:00,
2013-03-25 14:22:00,47.6,15.3,30.40,WNW,302,4.0,21.0,27,0.00,,---,0.00,VWS V14.01,2013-03-25 19:22:00,
2013-03-25 14:27:00,47.7,16.2,30.40,NW,307,19.0,22.0,28,0.00,,---,0.00,VWS V14.01,2013-03-25 19:27:00,
2013-03-25 14:32:00,48.0,15.6,30.39,NNW,340,9.0,13.0,27,0.00,,---,0.00,VWS V14.01,2013-03-25 19:32:00,
2013-03-25 14:37:00,48.1,14.9,30.39,NNW,333,12.0,16.0,26,0.00,,---,0.00,VWS V14.01,2013-03-25 19:37:00,
2013-03-25 14:42:00,47.9,13.8,30.39,NNW,333,8.0,22.0,25,0.00,,---,0.00,VWS V14.01,2013-03-25 19:42:00,
2013-03-25 14:47:00,47.9,15.6,30.39,WNW,289,8.0,22.0,27,0.00,,---,0.00,VWS V14.01,2013-03-25 19:47:00,
2013-03-25 14:52:00,48.1,14.9,30.39,NW,316,9.0,22.0,26,0.00,,---,0.00,VWS V14.01,2013-03-25 19:52:00,
2013-03-25 14:58:00,48.2,15.8,30.38,NW,314,14.0,22.0,27,0.00,,---,0.00,VWS V14.01,2013-03-25 19:58:00,
2013-03-25 15:03:00,48.7,14.5,30.38,NW,326,8.0,20.0,25,0.00,,---,0.00,VWS V14.01,2013-03-25 20:03:00,
2013-03-25 15:08:00,48.1,14.0,30.38,North,352,10.0,21.0,25,0.00,,---,0.00,VWS V14.01,2013-03-25 20:08:00,
2013-03-25 15:13:00,49.2,16.7,30.38,North,354,9.0,21.0,27,0.00,,---,0.00,VWS V14.01,2013-03-25 20:13:00,
2013-03-25 15:18:00,49.2,16.7,30.38,NNW,347,11.0,21.0,27,0.00,,---,0.00,VWS V14.01,2013-03-25 20:18:00,
2013-03-25 15:23:00,48.9,14.6,30.38,WNW,297,8.0,21.0,25,0.00,,---,0.00,VWS V14.01,2013-03-25 20:23:00,
2013-03-25 15:28:00,49.0,14.7,30.37,NW,314,7.0,22.0,25,0.00,,---,0.00,VWS V14.01,2013-03-25 20:28:00,
2013-03-25 15:33:00,49.2,14.9,30.37,NNW,344,12.0,21.0,25,0.00,,---,0.00,VWS V14.01,2013-03-25 20:33:00,
2013-03-25 15:38:00,49.3,15.9,30.37,NNW,333,15.0,21.0,26,0.00,,---,0.00,VWS V14.01,2013-03-25 20:38:00,
2013-03-25 15:43:00,49.2,16.7,30.37,NE,40,13.0,21.0,27,0.00,,---,0.00,VWS V14.01,2013-03-25 20:43:00,
2013-03-25 15:49:00,49.5,16.0,30.36,NW,324,8.0,21.0,26,0.00,,---,0.00,VWS V14.01,2013-03-25 20:49:00,
2013-03-25 15:54:00,49.7,15.3,30.36,NW,322,7.0,21.0,25,0.00,,---,0.00,VWS V14.01,2013-03-25 20:54:00,
2013-03-25 15:59:00,49.7,17.1,30.36,East,100,10.0,21.0,27,0.00,,---,0.00,VWS V14.01,2013-03-25 20:59:00,
2013-03-25 16:04:00,50.0,16.5,30.36,NNW,342,18.0,20.0,26,0.00,,---,0.00,VWS V14.01,2013-03-25 21:04:00,
2013-03-25 16:09:00,50.0,16.5,30.36,NW,322,7.0,20.0,26,0.00,,---,0.00,VWS V14.01,2013-03-25 21:09:00,
2013-03-25 16:14:00,49.8,17.2,30.36,NW,319,13.0,21.0,27,0.00,,---,0.00,VWS V14.01,2013-03-25 21:14:00,
2013-03-25 16:19:00,49.6,17.0,30.36,NW,314,9.0,21.0,27,0.00,,---,0.00,VWS V14.01,2013-03-25 21:19:00,
2013-03-25 16:25:00,50.0,16.5,30.36,WNW,293,6.0,21.0,26,0.00,,---,0.00,VWS V14.01,2013-03-25 21:25:00,
2013-03-25 16:30:00,50.2,16.6,30.36,NNW,339,15.0,21.0,26,0.00,,---,0.00,VWS V14.01,2013-03-25 21:30:00,
2013-03-25 16:35:00,49.9,16.4,30.36,NNW,342,17.0,21.0,26,0.00,,---,0.00,VWS V14.01,2013-03-25 21:35:00,
2013-03-25 16:40:00,50.3,16.7,30.36,NW,321,6.0,21.0,26,0.00,,---,0.00,VWS V14.01,2013-03-25 21:40:00,
2013-03-25 16:45:00,50.2,15.8,30.36,NW,319,14.0,22.0,25,0.00,,---,0.00,VWS V14.01,2013-03-25 21:45:00,
2013-03-25 16:50:00,50.4,15.9,30.36,NW,318,15.0,22.0,25,0.00,,---,0.00,VWS V14.01,2013-03-25 21:50:00,
2013-03-25 16:55:00,50.2,16.6,30.36,WNW,298,13.0,22.0,26,0.00,,---,0.00,VWS V14.01,2013-03-25 21:55:00,
2013-03-25 17:00:00,50.0,16.5,30.36,WNW,296,6.0,22.0,26,0.00,,---,0.00,VWS V14.01,2013-03-25 22:00:00,
2013-03-25 17:05:00,50.7,16.2,30.36,NNW,345,19.0,19.0,25,0.00,,---,0.00,VWS V14.01,2013-03-25 22:05:00,
2013-03-25 17:11:00,50.0,16.5,30.36,WNW,291,9.0,19.0,26,0.00,,---,0.00,VWS V14.01,2013-03-25 22:11:00,
2013-03-25 17:16:00,50.3,15.8,30.35,NNW,327,10.0,19.0,25,0.00,,---,0.00,VWS V14.01,2013-03-25 22:16:00,
2013-03-25 17:21:00,50.7,17.1,30.35,NNW,338,10.0,19.0,26,0.00,,---,0.00,VWS V14.01,2013-03-25 22:21:00,
2013-03-25 17:26:00,50.5,16.9,30.35,WNW,300,10.0,19.0,26,0.00,,---,0.00,VWS V14.01,2013-03-25 22:26:00,
2013-03-25 17:31:00,49.5,16.0,30.35,NNW,332,11.0,13.0,26,0.00,,---,0.00,VWS V14.01,2013-03-25 22:31:00,
2013-03-25 17:37:00,50.0,16.5,30.36,NW,324,9.0,19.0,26,0.00,,---,0.00,VWS V14.01,2013-03-25 22:37:00,
2013-03-25 17:42:00,50.3,16.7,30.35,North,359,12.0,19.0,26,0.00,,---,0.00,VWS V14.01,2013-03-25 22:42:00,
2013-03-25 17:47:00,49.7,16.2,30.36,NNW,332,8.0,19.0,26,0.00,,---,0.00,VWS V14.01,2013-03-25 22:47:00,
2013-03-25 17:52:00,49.4,16.8,30.36,West,279,9.0,19.0,27,0.00,,---,0.00,VWS V14.01,2013-03-25 22:52:00,
2013-03-25 17:57:00,50.2,17.5,30.35,East,80,2.0,19.0,27,0.00,,---,0.00,VWS V14.01,2013-03-25 22:57:00,
2013-03-25 18:02:00,49.9,16.4,30.36,NW,323,5.0,10.0,26,0.00,,---,0.00,VWS V14.01,2013-03-25 23:02:00,
2013-03-25 18:07:00,49.6,17.0,30.36,NNW,340,15.0,17.0,27,0.00,,---,0.00,VWS V14.01,2013-03-25 23:07:00,
2013-03-25 18:12:00,49.7,16.2,30.36,NW,312,9.0,18.0,26,0.00,,---,0.00,VWS V14.01,2013-03-25 23:12:00,
2013-03-25 18:17:00,49.7,17.1,30.36,NW,314,9.0,18.0,27,0.00,,---,0.00,VWS V14.01,2013-03-25 23:17:00,
2013-03-25 18:22:00,49.3,16.8,30.36,NW,307,7.0,18.0,27,0.00,,---,0.00,VWS V14.01,2013-03-25 23:22:00,
2013-03-25 18:27:00,49.4,16.8,30.36,NNW,333,9.0,18.0,27,0.00,,---,0.00,VWS V14.01,2013-03-25 23:27:00,
2013-03-25 18:32:00,49.3,16.8,30.36,NNW,329,12.0,14.0,27,0.00,,---,0.00,VWS V14.01,2013-03-25 23:32:00,
2013-03-25 18:38:00,49.2,16.7,30.36,NW,314,6.0,18.0,27,0.00,,---,0.00,VWS V14.01,2013-03-25 23:38:00,
2013-03-25 18:43:00,49.3,16.8,30.37,NNE,27,12.0,18.0,27,0.00,,---,0.00,VWS V14.01,2013-03-25 23:43:00,
2013-03-25 18:48:00,49.0,16.5,30.36,North,353,11.0,18.0,27,0.00,,---,0.00,VWS V14.01,2013-03-25 23:48:00,
2013-03-25 18:53:00,48.7,16.2,30.37,WNW,302,13.0,18.0,27,0.00,,---,0.00,VWS V14.01,2013-03-25 23:53:00,
2013-03-25 18:59:00,48.5,16.1,30.37,NNW,338,12.0,20.0,27,0.00,,---,0.00,VWS V14.01,2013-03-25 23:59:00,
2013-03-25 19:04:00,48.3,15.9,30.37,NW,323,12.0,16.0,27,0.00,,---,0.00,VWS V14.01,2013-03-26 00:04:00,
2013-03-25 19:09:00,48.4,16.8,30.37,NW,307,5.0,16.0,28,0.00,,---,0.00,VWS V14.01,2013-03-26 00:09:00,
2013-03-25 19:14:00,48.4,16.8,30.37,NNW,335,10.0,16.0,28,0.00,,---,0.00,VWS V14.01,2013-03-26 00:14:00,
2013-03-25 19:19:00,48.1,17.4,30.37,NNW,329,9.0,16.0,29,0.00,,---,0.00,VWS V14.01,2013-03-26 00:19:00,
2013-03-25 19:24:00,47.7,17.0,30.38,NW,314,4.0,16.0,29,0.00,,---,0.00,VWS V14.01,2013-03-26 00:24:00,
2013-03-25 19:29:00,47.2,17.4,30.38,North,349,9.0,16.0,30,0.00,,---,0.00,VWS V14.01,2013-03-26 00:29:00,
2013-03-25 19:34:00,46.7,16.9,30.38,NW,317,4.0,11.0,30,0.00,,---,0.00,VWS V14.01,2013-03-26 00:34:00,
2013-03-25 19:40:00,46.3,17.3,30.38,NNW,339,4.0,11.0,31,0.00,,---,0.00,VWS V14.01,2013-03-26 00:40:00,
2013-03-25 19:45:00,45.8,16.9,30.39,NNW,345,5.0,11.0,31,0.00,,---,0.00,VWS V14.01,2013-03-26 00:45:00,
2013-03-25 19:50:00,45.5,17.4,30.38,North,350,5.0,11.0,32,0.00,,---,0.00,VWS V14.01,2013-03-26 00:50:00,
2013-03-25 19:55:00,45.0,16.9,30.38,NNW,340,5.0,11.0,32,0.00,,---,0.00,VWS V14.01,2013-03-26 00:55:00,
2013-03-25 20:00:00,44.4,17.1,30.39,NNW,340,2.0,11.0,33,0.00,,---,0.00,VWS V14.01,2013-03-26 01:00:00,
2013-03-25 20:05:00,44.1,17.5,30.39,North,359,5.0,6.0,34,0.00,,---,0.00,VWS V14.01,2013-03-26 01:05:00,
2013-03-25 20:10:00,43.7,17.2,30.39,North,350,4.0,6.0,34,0.00,,---,0.00,VWS V14.01,2013-03-26 01:10:00,
2013-03-25 20:15:00,43.1,17.3,30.39,North,356,4.0,6.0,35,0.00,,---,0.00,VWS V14.01,2013-03-26 01:15:00,
2013-03-25 20:21:00,42.5,17.4,30.39,North,357,4.0,6.0,36,0.00,,---,0.00,VWS V14.01,2013-03-26 01:21:00,
2013-03-25 20:26:00,42.2,17.8,30.39,North,1,4.0,6.0,37,0.00,,---,0.00,VWS V14.01,2013-03-26 01:26:00,
2013-03-25 20:31:00,41.9,18.2,30.40,NNE,15,3.0,3.0,38,0.00,,---,0.00,VWS V14.01,2013-03-26 01:31:00,
2013-03-25 20:37:00,41.5,18.4,30.40,NNW,348,4.0,6.0,39,0.00,,---,0.00,VWS V14.01,2013-03-26 01:37:00,
2013-03-25 20:42:00,40.7,18.3,30.40,North,1,4.0,6.0,40,0.00,,---,0.00,VWS V14.01,2013-03-26 01:42:00,
2013-03-25 20:47:00,40.9,18.5,30.40,North,9,4.0,6.0,40,0.00,,---,0.00,VWS V14.01,2013-03-26 01:47:00,
2013-03-25 20:52:00,41.1,18.0,30.40,NNE,27,3.0,6.0,39,0.00,,---,0.00,VWS V14.01,2013-03-26 01:52:00,
2013-03-25 20:57:00,40.9,18.5,30.40,NNE,19,3.0,6.0,40,0.00,,---,0.00,VWS V14.01,2013-03-26 01:57:00,
2013-03-25 21:02:00,40.6,18.2,30.40,NNE,21,2.0,3.0,40,0.00,,---,0.00,VWS V14.01,2013-03-26 02:02:00,
2013-03-25 21:07:00,40.2,17.2,30.41,NE,35,3.0,4.0,39,0.00,,---,0.00,VWS V14.01,2013-03-26 02:07:00,
2013-03-25 21:13:00,40.1,17.7,30.40,NE,51,1.0,4.0,40,0.00,,---,0.00,VWS V14.01,2013-03-26 02:13:00,
2013-03-25 21:18:00,40.0,17.6,30.41,NE,49,4.0,4.0,40,0.00,,---,0.00,VWS V14.01,2013-03-26 02:18:00,
2013-03-25 21:23:00,40.0,17.6,30.41,NE,43,5.0,6.0,40,0.00,,---,0.00,VWS V14.01,2013-03-26 02:23:00,
2013-03-25 21:28:00,39.8,17.5,30.41,NE,37,4.0,6.0,40,0.00,,---,0.00,VWS V14.01,2013-03-26 02:28:00,
2013-03-25 21:33:00,39.4,17.7,30.41,NE,45,4.0,4.0,41,0.00,,---,0.00,VWS V14.01,2013-03-26 02:33:00,
2013-03-25 21:38:00,39.1,17.4,30.41,ENE,60,2.0,4.0,41,0.00,,---,0.00,VWS V14.01,2013-03-26 02:38:00,
2013-03-25 21:43:00,38.7,18.1,30.41,ENE,71,1.0,4.0,43,0.00,,---,0.00,VWS V14.01,2013-03-26 02:43:00,
2013-03-25 21:48:00,38.7,18.1,30.41,ENE,70,2.0,4.0,43,0.00,,---,0.00,VWS V14.01,2013-03-26 02:48:00,
2013-03-25 21:53:00,38.5,18.0,30.41,ENE,75,2.0,4.0,43,0.00,,---,0.00,VWS V14.01,2013-03-26 02:53:00,
2013-03-25 21:59:00,38.3,17.8,30.41,ENE,75,1.0,4.0,43,0.00,,---,0.00,VWS V14.01,2013-03-26 02:59:00,
2013-03-25 22:04:00,38.2,17.7,30.41,ENE,67,1.0,2.0,43,0.00,,---,0.00,VWS V14.01,2013-03-26 03:04:00,
2013-03-25 22:09:00,38.3,17.8,30.42,NE,53,2.0,4.0,43,0.00,,---,0.00,VWS V14.01,2013-03-26 03:09:00,
2013-03-25 22:14:00,38.3,17.8,30.42,ENE,60,2.0,4.0,43,0.00,,---,0.00,VWS V14.01,2013-03-26 03:14:00,
2013-03-25 22:19:00,38.4,17.9,30.42,ENE,58,2.0,4.0,43,0.00,,---,0.00,VWS V14.01,2013-03-26 03:19:00,
2013-03-25 22:24:00,38.2,17.7,30.42,ENE,63,2.0,4.0,43,0.00,,---,0.00,VWS V14.01,2013-03-26 03:24:00,
2013-03-25 22:30:00,38.2,17.7,30.42,ENE,61,3.0,4.0,43,0.00,,---,0.00,VWS V14.01,2013-03-26 03:30:00,
2013-03-25 22:35:00,38.3,17.8,30.42,ENE,57,3.0,4.0,43,0.00,,---,0.00,VWS V14.01,2013-03-26 03:35:00,
2013-03-25 22:40:00,38.1,17.6,30.42,NE,46,4.0,6.0,43,0.00,,---,0.00,VWS V14.01,2013-03-26 03:40:00,
2013-03-25 22:45:00,37.7,17.8,30.43,ENE,58,2.0,6.0,44,0.00,,---,0.00,VWS V14.01,2013-03-26 03:45:00,
2013-03-25 22:50:00,37.3,17.4,30.43,ENE,57,2.0,6.0,44,0.00,,---,0.00,VWS V14.01,2013-03-26 03:50:00,
2013-03-25 22:55:00,36.7,17.9,30.43,ENE,63,2.0,6.0,46,0.00,,---,0.00,VWS V14.01,2013-03-26 03:55:00,
2013-03-25 23:00:00,36.5,17.7,30.43,NE,44,2.0,6.0,46,0.00,,---,0.00,VWS V14.01,2013-03-26 04:00:00,
2013-03-25 23:02:00,36.5,17.7,30.43,NE,51,2.0,2.0,46,0.00,,---,0.00,VWS V14.01,2013-03-26 04:02:00,
2013-03-25 23:07:00,36.3,17.5,30.43,NE,42,2.0,3.0,46,0.00,,---,0.00,VWS V14.01,2013-03-26 04:07:00,
2013-03-25 23:12:00,36.1,17.8,30.44,NE,47,1.0,3.0,47,0.00,,---,0.00,VWS V14.01,2013-03-26 04:12:00,
2013-03-25 23:17:00,35.7,17.5,30.44,NE,52,1.0,3.0,47,0.00,,---,0.00,VWS V14.01,2013-03-26 04:17:00,
2013-03-25 23:23:00,35.5,17.8,30.44,NE,51,0.0,3.0,48,0.00,,---,0.00,VWS V14.01,2013-03-26 04:23:00,
2013-03-25 23:28:00,35.3,17.6,30.44,East,79,0.0,3.0,48,0.00,,---,0.00,VWS V14.01,2013-03-26 04:28:00,
2013-03-25 23:33:00,35.1,17.4,30.44,NE,54,0.0,0.0,48,0.00,,---,0.00,VWS V14.01,2013-03-26 04:33:00,
2013-03-25 23:38:00,34.7,17.0,30.44,NE,53,0.0,0.0,48,0.00,,---,0.00,VWS V14.01,2013-03-26 04:38:00,
2013-03-25 23:43:00,34.5,17.3,30.44,NE,53,0.0,0.0,49,0.00,,---,0.00,VWS V14.01,2013-03-26 04:43:00,
2013-03-25 23:48:00,34.4,17.2,30.44,NE,54,0.0,0.0,49,0.00,,---,0.00,VWS V14.01,2013-03-26 04:48:00,
2013-03-25 23:54:00,34.1,17.0,30.44,NE,53,0.0,0.0,49,0.00,,---,0.00,VWS V14.01,2013-03-26 04:54:00,
2013-03-25 23:59:00,34.1,17.0,30.44,NE,53,0.0,0.0,49,0.00,,---,0.00,VWS V14.01,2013-03-26 04:59:00,